| time (UTC) | temp F | wind direction | speed knots | gust knots | rain 1hr in | rain 24hr in | rain mn in | humidity % | barometer mb |
| 20260904171056 | 90 | 220 | 0.0 | 1.7 | 0.00 | 0.00 | 0.00 | 66 | 1014.0 |
| 20260904170552 | 90 | 173 | 0.0 | 2.6 | 0.00 | 0.00 | 0.00 | 67 | 1014.2 |
| 20260904170048 | 90 | 339 | 0.9 | 1.7 | 0.00 | 0.00 | 0.00 | 68 | 1014.1 |
| 20260904165547 | 88 | 182 | 0.0 | 1.7 | 0.00 | 0.00 | 0.00 | 71 | 1014.1 |
| 20260904165046 | 88 | 68 | 0.9 | 2.6 | 0.00 | 0.00 | 0.00 | 71 | 1014.2 |
| 20260904164542 | 88 | 119 | 1.7 | 1.7 | 0.00 | 0.00 | 0.00 | 70 | 1014.4 |
| 20260904164037 | 89 | 277 | 0.9 | 3.5 | 0.00 | 0.00 | 0.00 | 70 | 1014.4 |
| 20260904163537 | 89 | 261 | 1.7 | 2.6 | 0.00 | 0.00 | 0.00 | 69 | 1014.3 |
| 20260904163032 | 91 | 20 | 0.0 | 1.7 | 0.00 | 0.00 | 0.00 | 66 | 1014.5 |
| 20260904162527 | 92 | 329 | 0.0 | 3.5 | 0.00 | 0.00 | 0.00 | 64 | 1014.4 |
| 20260904162022 | 91 | 352 | 0.9 | 2.6 | 0.00 | 0.00 | 0.00 | 65 | 1014.5 |
| 20260904161517 | 90 | 57 | 0.0 | 4.3 | 0.00 | 0.00 | 0.00 | 67 | 1014.5 |
| 20260904161012 | 91 | 291 | 0.9 | 2.6 | 0.00 | 0.00 | 0.00 | 65 | 1014.7 |
| 20260904160507 | 92 | 97 | 2.6 | 4.3 | 0.00 | 0.00 | 0.00 | 62 | 1015.0 |
| 20260904160004 | 92 | 264 | 0.9 | 3.5 | 0.00 | 0.00 | 0.00 | 65 | 1014.9 |
| 20260904155503 | 89 | 334 | 0.9 | 1.7 | 0.00 | 0.00 | 0.00 | 71 | 1014.9 |
| 20260904155001 | 88 | 69 | 0.0 | 2.6 | 0.00 | 0.00 | 0.00 | 71 | 1014.9 |
| 20260904154456 | 88 | 288 | 2.6 | 3.5 | 0.00 | 0.00 | 0.00 | 71 | 1015.1 |
| 20260904153951 | 88 | 322 | 0.9 | 1.7 | 0.00 | 0.00 | 0.00 | 73 | 1014.8 |
| 20260904153445 | 88 | 153 | 0.9 | 2.6 | 0.00 | 0.00 | 0.00 | 74 | 1014.9 |
| 20260904152942 | 87 | 308 | 1.7 | 1.7 | 0.00 | 0.00 | 0.00 | 75 | 1014.6 |
| 20260904152438 | 87 | 38 | 0.0 | 3.5 | 0.00 | 0.00 | 0.00 | 75 | 1014.7 |
| 20260904151938 | 86 | 194 | 0.0 | 1.7 | 0.00 | 0.00 | 0.00 | 76 | 1014.6 |
| 20260904151433 | 86 | 176 | 0.0 | 2.6 | 0.00 | 0.00 | 0.00 | 76 | 1014.4 |
| 20260904150927 | 87 | 302 | 0.0 | 1.7 | 0.00 | 0.00 | 0.00 | 75 | 1014.7 |
| 20260904150422 | 86 | 204 | 1.7 | 2.6 | 0.00 | 0.00 | 0.00 | 76 | 1014.7 |
| 20260904145920 | 86 | 46 | 0.9 | 2.6 | 0.00 | 0.00 | 0.00 | 76 | 1014.7 |
| 20260904145416 | 86 | 234 | 0.0 | 2.6 | 0.00 | 0.00 | 0.00 | 77 | 1014.6 |
| 20260904144912 | 86 | 13 | 0.0 | 1.7 | 0.00 | 0.00 | 0.00 | 75 | 1014.7 |
| 20260904144407 | 86 | 267 | 2.6 | 2.6 | 0.00 | 0.00 | 0.00 | 76 | 1014.7 |
| 20260904143903 | 86 | 69 | 1.7 | 2.6 | 0.00 | 0.00 | 0.00 | 76 | 1014.6 |
| 20260904143359 | 86 | 235 | 0.0 | 3.5 | 0.00 | 0.00 | 0.00 | 78 | 1014.5 |
| 20260904142856 | 86 | 199 | 0.0 | 1.7 | 0.00 | 0.00 | 0.00 | 80 | 1014.4 |
| 20260904142352 | 86 | 287 | 0.0 | 3.5 | 0.00 | 0.00 | 0.00 | 78 | 1014.5 |
| 20260904141851 | 85 | 295 | 0.9 | 4.3 | 0.00 | 0.00 | 0.00 | 79 | 1014.5 |
| 20260904141346 | 85 | 259 | 0.9 | 2.6 | 0.00 | 0.00 | 0.00 | 79 | 1014.3 |
| 20260904140843 | 85 | 306 | 1.7 | 3.5 | 0.00 | 0.00 | 0.00 | 79 | 1014.4 |
| 20260904140337 | 84 | 185 | 0.9 | 1.7 | 0.00 | 0.00 | 0.00 | 80 | 1014.4 |
| 20260904135836 | 84 | 258 | 1.7 | 3.5 | 0.00 | 0.00 | 0.00 | 81 | 1014.4 |
| 20260904135331 | 84 | 239 | 0.9 | 3.5 | 0.00 | 0.00 | 0.00 | 80 | 1014.5 |
| 20260904134827 | 84 | 107 | 2.6 | 4.3 | 0.00 | 0.00 | 0.00 | 80 | 1014.4 |
| 20260904134322 | 84 | 61 | 0.0 | 1.7 | 0.00 | 0.00 | 0.00 | 82 | 1014.4 |
| 20260904133822 | 84 | 317 | 0.0 | 2.6 | 0.00 | 0.00 | 0.00 | 83 | 1014.3 |
| 20260904133318 | 84 | 86 | 1.7 | 2.6 | 0.00 | 0.00 | 0.00 | 84 | 1014.2 |
| 20260904132817 | 83 | 298 | 1.7 | 2.6 | 0.00 | 0.00 | 0.00 | 84 | 1014.3 |
| 20260904132312 | 83 | 138 | 1.7 | 4.3 | 0.00 | 0.00 | 0.00 | 83 | 1014.3 |
| 20260904131812 | 83 | 274 | 0.0 | 1.7 | 0.00 | 0.00 | 0.00 | 85 | 1014.2 |
| 20260904131308 | 83 | 283 | 0.0 | 1.7 | 0.00 | 0.00 | 0.00 | 85 | 1014.4 |
| 20260904130808 | 83 | 58 | 0.0 | 1.7 | 0.00 | 0.00 | 0.00 | 85 | 1014.3 |
| 20260904130307 | 83 | 90 | 0.9 | 3.5 | 0.00 | 0.00 | 0.00 | 86 | 1014.6 |
| 20260904125803 | 83 | 303 | 0.0 | 1.7 | 0.00 | 0.00 | 0.00 | 87 | 1014.5 |
| 20260904125259 | 82 | 227 | 0.0 | 1.7 | 0.00 | 0.00 | 0.00 | 88 | 1014.7 |
| 20260904124753 | 82 | 296 | 0.0 | 2.6 | 0.00 | 0.00 | 0.00 | 89 | 1014.5 |
| 20260904124249 | 82 | 114 | 0.9 | 1.7 | 0.00 | 0.00 | 0.00 | 90 | 1014.2 |
| 20260904123749 | 82 | 161 | 0.0 | 2.6 | 0.00 | 0.00 | 0.00 | 90 | 1014.2 |
| 20260904123239 | 82 | 356 | 0.0 | 1.7 | 0.00 | 0.00 | 0.00 | 91 | 1014.4 |
| 20260904122734 | 81 | 98 | 0.0 | 1.7 | 0.00 | 0.00 | 0.00 | 91 | 1014.1 |
| 20260904122228 | 81 | 300 | 0.0 | 1.7 | 0.00 | 0.00 | 0.00 | 94 | 1014.0 |
| 20260904121724 | 80 | 190 | 0.0 | 1.7 | 0.00 | 0.00 | 0.00 | 97 | 1014.0 |
| 20260904121219 | 79 | 161 | 0.9 | 2.6 | 0.00 | 0.00 | 0.00 | 98 | 1014.1 |
| 20260904120715 | 79 | 218 | 0.0 | 1.7 | 0.00 | 0.00 | 0.00 | 98 | 1014.1 |
| 20260904120211 | 78 | 87 | 0.0 | 0.9 | 0.00 | 0.00 | 0.00 | 98 | 1014.2 |
| 20260904115706 | 78 | 31 | 0.0 | 0.9 | 0.00 | 0.00 | 0.00 | 98 | 1013.9 |
| 20260904115201 | 78 | 0 | 0.0 | 0.0 | 0.00 | 0.00 | 0.00 | 98 | 1014.1 |
| 20260904114701 | 78 | 250 | 0.0 | 0.0 | 0.00 | 0.00 | 0.00 | 98 | 1013.9 |
| 20260904114155 | 77 | 250 | 0.0 | 0.0 | 0.00 | 0.00 | 0.00 | 98 | 1013.9 |
| 20260904113650 | 77 | 223 | 0.0 | 0.0 | 0.00 | 0.00 | 0.00 | 98 | 1013.9 |
| 20260904113149 | 77 | 122 | 0.0 | 0.0 | 0.00 | 0.00 | 0.00 | 98 | 1013.7 |
| 20260904112644 | 77 | 116 | 0.0 | 0.0 | 0.00 | 0.00 | 0.00 | 98 | 1013.6 |
| 20260904112140 | 77 | 278 | 0.0 | 0.0 | 0.00 | 0.00 | 0.00 | 98 | 1013.5 |
| 20260904111636 | 77 | 277 | 0.0 | 0.0 | 0.00 | 0.00 | 0.00 | 98 | 1013.6 |
| 20260904111131 | 77 | 198 | 0.0 | 0.0 | 0.00 | 0.00 | 0.00 | 98 | 1013.7 |
| 20260904110627 | 77 | 198 | 0.0 | 0.0 | 0.00 | 0.00 | 0.00 | 98 | 1013.6 |
| 20260904110126 | 77 | 70 | 0.0 | 0.0 | 0.00 | 0.00 | 0.00 | 98 | 1013.4 |
| 20260904105626 | 77 | 55 | 0.0 | 0.0 | 0.00 | 0.00 | 0.00 | 98 | 1013.6 |
| 20260904105121 | 77 | 134 | 0.0 | 0.0 | 0.00 | 0.00 | 0.00 | 98 | 1013.5 |
| 20260904104617 | 77 | 205 | 0.0 | 0.0 | 0.00 | 0.00 | 0.00 | 98 | 1013.4 |
| 20260904104112 | 77 | 98 | 0.0 | 0.0 | 0.00 | 0.00 | 0.00 | 98 | 1013.3 |
| 20260904103608 | 77 | 98 | 0.0 | 0.0 | 0.00 | 0.00 | 0.00 | 98 | 1013.5 |
| 20260904103104 | 77 | 356 | 0.0 | 0.0 | 0.00 | 0.00 | 0.00 | 98 | 1013.2 |
| 20260904102600 | 77 | 43 | 0.0 | 0.0 | 0.00 | 0.00 | 0.00 | 98 | 1013.3 |
| 20260904102055 | 77 | 123 | 0.0 | 0.9 | 0.00 | 0.00 | 0.00 | 98 | 1013.3 |
| 20260904101551 | 77 | 153 | 0.0 | 0.0 | 0.00 | 0.00 | 0.00 | 98 | 1013.5 |
| 20260904101047 | 77 | 70 | 0.0 | 0.0 | 0.00 | 0.00 | 0.00 | 97 | 1013.5 |
| 20260904100542 | 77 | 334 | 0.0 | 0.0 | 0.00 | 0.00 | 0.00 | 97 | 1013.3 |
| 20260904100037 | 77 | 186 | 0.0 | 0.0 | 0.00 | 0.00 | 0.00 | 97 | 1013.2 |
| 20260904095532 | 77 | 13 | 0.0 | 0.0 | 0.00 | 0.00 | 0.00 | 97 | 1013.3 |
| 20260904095027 | 77 | 250 | 0.0 | 0.0 | 0.00 | 0.00 | 0.00 | 97 | 1013.3 |
| 20260904094522 | 77 | 103 | 0.0 | 0.0 | 0.00 | 0.00 | 0.00 | 97 | 1013.2 |
| 20260904094017 | 77 | 278 | 0.0 | 0.0 | 0.00 | 0.00 | 0.00 | 97 | 1013.3 |
| 20260904093514 | 77 | 18 | 0.0 | 0.0 | 0.00 | 0.00 | 0.00 | 97 | 1013.2 |
| 20260904093009 | 77 | 110 | 0.0 | 0.9 | 0.00 | 0.00 | 0.00 | 97 | 1013.1 |
| 20260904092504 | 77 | 58 | 0.0 | 0.0 | 0.00 | 0.00 | 0.00 | 97 | 1013.3 |
| 20260904092000 | 77 | 123 | 0.0 | 0.0 | 0.00 | 0.00 | 0.00 | 97 | 1013.0 |
| 20260904091451 | 77 | 290 | 0.0 | 0.0 | 0.00 | 0.00 | 0.00 | 97 | 1013.1 |
| 20260904090950 | 77 | 211 | 0.0 | 0.0 | 0.00 | 0.00 | 0.00 | 96 | 1013.0 |
| 20260904090446 | 77 | 107 | 0.0 | 0.0 | 0.00 | 0.00 | 0.00 | 96 | 1013.1 |
| 20260904085941 | 77 | 18 | 0.0 | 0.9 | 0.00 | 0.00 | 0.00 | 96 | 1012.9 |
| 20260904085437 | 77 | 134 | 0.0 | 0.0 | 0.00 | 0.00 | 0.00 | 96 | 1013.2 |
| 20260904084936 | 77 | 134 | 0.0 | 0.0 | 0.00 | 0.00 | 0.00 | 96 | 1013.2 |
| 20260904084432 | 77 | 134 | 0.0 | 0.0 | 0.00 | 0.00 | 0.00 | 96 | 1013.0 |
| 20260904083928 | 78 | 134 | 0.0 | 0.0 | 0.00 | 0.00 | 0.00 | 96 | 1013.2 |
| 20260904083424 | 78 | 134 | 0.0 | 0.0 | 0.00 | 0.00 | 0.00 | 96 | 1012.8 |
| 20260904082920 | 78 | 134 | 0.0 | 0.0 | 0.00 | 0.00 | 0.00 | 95 | 1013.0 |
| 20260904082420 | 78 | 134 | 0.0 | 0.0 | 0.00 | 0.00 | 0.00 | 95 | 1012.9 |
| 20260904081914 | 78 | 186 | 0.0 | 0.0 | 0.00 | 0.00 | 0.00 | 95 | 1013.0 |
| 20260904081410 | 78 | 186 | 0.0 | 0.0 | 0.00 | 0.00 | 0.00 | 95 | 1013.0 |
| 20260904080906 | 78 | 186 | 0.0 | 0.0 | 0.00 | 0.00 | 0.00 | 95 | 1012.9 |
| 20260904080401 | 78 | 186 | 0.0 | 0.0 | 0.00 | 0.00 | 0.00 | 95 | 1013.1 |
| 20260904075857 | 78 | 186 | 0.0 | 0.0 | 0.00 | 0.00 | 0.00 | 95 | 1013.2 |
| 20260904075353 | 78 | 98 | 0.0 | 0.0 | 0.00 | 0.00 | 0.00 | 94 | 1013.0 |
| 20260904074851 | 78 | 98 | 0.0 | 0.0 | 0.00 | 0.00 | 0.00 | 95 | 1012.9 |
| 20260904074346 | 78 | 144 | 0.0 | 0.0 | 0.00 | 0.00 | 0.00 | 96 | 1013.1 |
| 20260904073842 | 78 | 290 | 0.0 | 0.0 | 0.00 | 0.00 | 0.00 | 96 | 1013.0 |
| 20260904073338 | 78 | 205 | 0.0 | 0.0 | 0.00 | 0.00 | 0.00 | 97 | 1012.9 |
| 20260904072833 | 78 | 98 | 0.0 | 0.0 | 0.00 | 0.00 | 0.00 | 97 | 1013.0 |
| 20260904072333 | 77 | 98 | 0.0 | 0.0 | 0.00 | 0.00 | 0.00 | 97 | 1013.3 |
| 20260904071828 | 77 | 85 | 0.0 | 0.0 | 0.00 | 0.00 | 0.00 | 97 | 1013.0 |
| 20260904071324 | 77 | 85 | 0.0 | 0.0 | 0.00 | 0.00 | 0.00 | 97 | 1013.1 |
| 20260904070818 | 77 | 70 | 0.0 | 0.0 | 0.00 | 0.00 | 0.00 | 97 | 1013.0 |
| 20260904070317 | 77 | 70 | 0.0 | 0.0 | 0.00 | 0.00 | 0.00 | 97 | 1012.9 |
| 20260904065812 | 77 | 70 | 0.0 | 0.0 | 0.00 | 0.00 | 0.00 | 97 | 1012.9 |
| 20260904065308 | 77 | 70 | 0.0 | 0.0 | 0.00 | 0.00 | 0.00 | 97 | 1013.2 |
| 20260904064803 | 77 | 70 | 0.0 | 0.0 | 0.00 | 0.00 | 0.00 | 96 | 1013.0 |
| 20260904064259 | 77 | 70 | 0.0 | 0.0 | 0.00 | 0.00 | 0.00 | 96 | 1013.2 |
| 20260904063754 | 77 | 70 | 0.0 | 0.0 | 0.00 | 0.00 | 0.00 | 96 | 1013.0 |
| 20260904063250 | 77 | 70 | 0.0 | 0.0 | 0.00 | 0.00 | 0.00 | 96 | 1013.2 |
| 20260904062746 | 77 | 70 | 0.0 | 0.0 | 0.00 | 0.00 | 0.00 | 96 | 1013.2 |
| 20260904062242 | 77 | 70 | 0.0 | 0.0 | 0.00 | 0.00 | 0.00 | 96 | 1013.2 |
| 20260904061737 | 78 | 70 | 0.0 | 0.0 | 0.00 | 0.00 | 0.00 | 96 | 1013.3 |
| 20260904061233 | 78 | 70 | 0.0 | 0.0 | 0.00 | 0.00 | 0.00 | 96 | 1013.5 |
| 20260904060730 | 78 | 250 | 0.0 | 0.0 | 0.00 | 0.00 | 0.00 | 95 | 1013.4 |
| 20260904060225 | 78 | 250 | 0.0 | 0.0 | 0.00 | 0.00 | 0.00 | 95 | 1013.5 |
| 20260904055720 | 78 | 250 | 0.0 | 0.0 | 0.00 | 0.00 | 0.00 | 95 | 1013.8 |
| 20260904055215 | 78 | 250 | 0.0 | 0.0 | 0.00 | 0.00 | 0.00 | 95 | 1013.6 |
| 20260904054711 | 78 | 250 | 0.0 | 0.0 | 0.00 | 0.00 | 0.00 | 95 | 1013.9 |
| 20260904054207 | 78 | 250 | 0.0 | 0.0 | 0.00 | 0.00 | 0.00 | 95 | 1013.7 |
| 20260904053701 | 78 | 250 | 0.0 | 0.0 | 0.00 | 0.00 | 0.00 | 94 | 1013.7 |
| 20260904053156 | 78 | 98 | 0.0 | 0.0 | 0.00 | 0.00 | 0.00 | 95 | 1013.8 |
| 20260904052653 | 78 | 98 | 0.0 | 0.0 | 0.00 | 0.00 | 0.00 | 95 | 1014.0 |
| 20260904052148 | 78 | 110 | 0.0 | 0.0 | 0.00 | 0.00 | 0.00 | 95 | 1014.1 |
| 20260904051645 | 78 | 57 | 0.0 | 0.0 | 0.00 | 0.00 | 0.00 | 95 | 1014.0 |
| 20260904051145 | 78 | 57 | 0.0 | 0.0 | 0.00 | 0.00 | 0.00 | 95 | 1014.1 |
| 20260904050640 | 78 | 57 | 0.0 | 0.0 | 0.00 | 0.00 | 0.00 | 95 | 1014.1 |
| 20260904050137 | 78 | 186 | 0.0 | 0.0 | 0.00 | 0.00 | 0.00 | 95 | 1014.1 |
| 20260904045636 | 78 | 186 | 0.0 | 0.0 | 0.00 | 0.00 | 0.00 | 95 | 1014.2 |
| 20260904045131 | 78 | 186 | 0.0 | 0.0 | 0.00 | 0.00 | 0.00 | 95 | 1014.2 |
| 20260904044626 | 78 | 186 | 0.0 | 0.0 | 0.00 | 0.00 | 0.00 | 94 | 1014.1 |
| 20260904044123 | 78 | 186 | 0.0 | 0.0 | 0.00 | 0.00 | 0.00 | 94 | 1014.2 |
| 20260904043619 | 78 | 186 | 0.0 | 0.0 | 0.00 | 0.00 | 0.00 | 94 | 1014.1 |
| 20260904043115 | 79 | 150 | 0.0 | 0.0 | 0.00 | 0.00 | 0.00 | 94 | 1014.2 |
| 20260904042610 | 79 | 123 | 0.0 | 0.0 | 0.00 | 0.00 | 0.00 | 93 | 1014.1 |
| 20260904042106 | 79 | 227 | 0.0 | 0.9 | 0.00 | 0.00 | 0.00 | 93 | 1014.1 |
| 20260904041601 | 79 | 285 | 0.0 | 0.0 | 0.00 | 0.00 | 0.00 | 92 | 1014.1 |
| 20260904041057 | 79 | 285 | 0.0 | 0.0 | 0.00 | 0.00 | 0.00 | 92 | 1014.0 |
| 20260904040557 | 80 | 210 | 0.0 | 0.0 | 0.00 | 0.00 | 0.00 | 92 | 1014.0 |
| 20260904040054 | 80 | 92 | 0.0 | 0.0 | 0.00 | 0.00 | 0.00 | 92 | 1014.2 |
| 20260904035549 | 80 | 296 | 0.0 | 0.0 | 0.00 | 0.00 | 0.00 | 91 | 1014.0 |
| 20260904035048 | 80 | 94 | 0.0 | 0.9 | 0.00 | 0.00 | 0.00 | 91 | 1014.2 |
| 20260904034543 | 80 | 105 | 0.0 | 0.0 | 0.00 | 0.00 | 0.00 | 91 | 1014.2 |
| 20260904034039 | 80 | 268 | 0.0 | 0.0 | 0.00 | 0.00 | 0.00 | 91 | 1014.2 |
| 20260904033535 | 80 | 110 | 0.0 | 0.0 | 0.00 | 0.00 | 0.00 | 91 | 1014.1 |
| 20260904033032 | 80 | 250 | 0.0 | 0.0 | 0.00 | 0.00 | 0.00 | 91 | 1014.0 |
| 20260904032528 | 80 | 250 | 0.0 | 0.9 | 0.00 | 0.00 | 0.00 | 91 | 1014.1 |
| 20260904032026 | 80 | 198 | 0.0 | 0.0 | 0.00 | 0.00 | 0.00 | 91 | 1013.9 |
| 20260904031521 | 80 | 43 | 0.0 | 0.9 | 0.00 | 0.00 | 0.00 | 91 | 1014.0 |
| 20260904031017 | 80 | 98 | 0.0 | 0.9 | 0.00 | 0.00 | 0.00 | 91 | 1014.1 |
| 20260904030513 | 80 | 303 | 0.0 | 0.0 | 0.00 | 0.00 | 0.00 | 91 | 1014.0 |
| 20260904030008 | 80 | 290 | 0.0 | 0.9 | 0.00 | 0.00 | 0.00 | 91 | 1013.9 |
| 20260904025504 | 80 | 315 | 0.0 | 0.0 | 0.00 | 0.00 | 0.00 | 90 | 1014.0 |
| 20260904025004 | 80 | 274 | 0.0 | 0.0 | 0.00 | 0.00 | 0.00 | 90 | 1014.1 |
| 20260904024459 | 80 | 153 | 0.0 | 0.0 | 0.00 | 0.00 | 0.00 | 90 | 1013.9 |
| 20260904023954 | 80 | 210 | 0.0 | 0.9 | 0.00 | 0.00 | 0.00 | 90 | 1013.6 |
| 20260904023450 | 80 | 163 | 0.0 | 0.0 | 0.00 | 0.00 | 0.00 | 90 | 1013.8 |
| 20260904022950 | 80 | 278 | 0.0 | 0.0 | 0.00 | 0.00 | 0.00 | 90 | 1013.9 |
| 20260904022446 | 80 | 278 | 0.0 | 0.0 | 0.00 | 0.00 | 0.00 | 90 | 1013.8 |
| 20260904021943 | 80 | 34 | 0.0 | 0.9 | 0.00 | 0.00 | 0.00 | 90 | 1013.7 |
| 20260904021438 | 80 | 31 | 0.0 | 1.7 | 0.00 | 0.00 | 0.00 | 90 | 1013.8 |
| 20260904020933 | 80 | 98 | 0.0 | 0.0 | 0.00 | 0.00 | 0.00 | 90 | 1013.9 |
| 20260904020428 | 80 | 216 | 0.0 | 0.9 | 0.00 | 0.00 | 0.00 | 91 | 1013.7 |
| 20260904015926 | 80 | 223 | 0.0 | 0.0 | 0.00 | 0.00 | 0.00 | 90 | 1013.9 |
| 20260904015422 | 80 | 95 | 0.0 | 0.9 | 0.00 | 0.00 | 0.00 | 90 | 1013.5 |
| 20260904014920 | 80 | 20 | 0.0 | 0.9 | 0.00 | 0.00 | 0.00 | 90 | 1013.7 |
| 20260904014416 | 80 | 198 | 0.0 | 0.9 | 0.00 | 0.00 | 0.00 | 90 | 1013.7 |
| 20260904013912 | 80 | 43 | 0.0 | 0.0 | 0.00 | 0.00 | 0.00 | 89 | 1013.5 |
| 20260904013407 | 80 | 250 | 0.0 | 0.0 | 0.00 | 0.00 | 0.00 | 89 | 1013.9 |
| 20260904012858 | 80 | 236 | 0.0 | 0.9 | 0.00 | 0.00 | 0.00 | 88 | 1013.7 |
| 20260904012357 | 80 | 186 | 0.0 | 0.0 | 0.00 | 0.00 | 0.00 | 88 | 1013.9 |
| 20260904011857 | 80 | 98 | 0.0 | 0.9 | 0.00 | 0.00 | 0.00 | 88 | 1013.9 |
| 20260904011352 | 80 | 98 | 0.0 | 0.0 | 0.00 | 0.00 | 0.00 | 88 | 1013.5 |
| 20260904010847 | 80 | 25 | 0.0 | 0.9 | 0.00 | 0.00 | 0.00 | 88 | 1013.8 |
| 20260904010344 | 80 | 227 | 0.0 | 0.0 | 0.00 | 0.00 | 0.00 | 87 | 1013.5 |
| 20260904005838 | 80 | 205 | 0.0 | 0.0 | 0.00 | 0.00 | 0.00 | 86 | 1013.5 |
| 20260904005334 | 80 | 198 | 0.0 | 0.9 | 0.00 | 0.00 | 0.00 | 86 | 1013.5 |
| 20260904004829 | 81 | 91 | 0.0 | 1.7 | 0.00 | 0.00 | 0.00 | 85 | 1013.5 |
| 20260904004326 | 81 | 21 | 0.0 | 0.9 | 0.00 | 0.00 | 0.00 | 86 | 1013.2 |
| 20260904003820 | 81 | 130 | 0.0 | 0.0 | 0.00 | 0.00 | 0.00 | 85 | 1013.5 |
| 20260904003316 | 81 | 84 | 0.0 | 0.0 | 0.00 | 0.00 | 0.00 | 85 | 1013.5 |
| 20260904002812 | 81 | 278 | 0.0 | 0.0 | 0.00 | 0.00 | 0.00 | 84 | 1013.6 |
| 20260904002308 | 81 | 84 | 0.0 | 0.0 | 0.00 | 0.00 | 0.00 | 84 | 1013.6 |
| 20260904001807 | 81 | 70 | 0.0 | 0.0 | 0.00 | 0.00 | 0.00 | 84 | 1013.5 |
| 20260904001302 | 81 | 216 | 0.0 | 0.0 | 0.00 | 0.00 | 0.00 | 84 | 1013.6 |
| 20260904000757 | 81 | 250 | 0.0 | 0.0 | 0.00 | 0.00 | 0.00 | 84 | 1013.4 |
| 20260904000251 | 82 | 97 | 0.0 | 0.9 | 0.00 | 0.00 | 0.00 | 83 | 1013.2 |
| 20260903235750 | 82 | 25 | 0.0 | 0.9 | 0.00 | 0.00 | 0.00 | 84 | 1013.3 |
| 20260903235247 | 82 | 31 | 0.0 | 0.9 | 0.00 | 0.00 | 0.00 | 84 | 1013.3 |
| 20260903234746 | 82 | 200 | 0.0 | 0.0 | 0.00 | 0.00 | 0.00 | 84 | 1013.1 |
| 20260903234243 | 82 | 54 | 0.0 | 0.9 | 0.00 | 0.00 | 0.00 | 83 | 1013.1 |
| 20260903233739 | 83 | 123 | 0.0 | 1.7 | 0.00 | 0.00 | 0.00 | 82 | 1013.1 |
| 20260903233234 | 83 | 214 | 0.0 | 0.9 | 0.00 | 0.00 | 0.00 | 81 | 1013.2 |
| 20260903232733 | 83 | 352 | 0.0 | 1.7 | 0.00 | 0.00 | 0.00 | 81 | 1013.0 |
| 20260903232230 | 83 | 347 | 0.9 | 0.9 | 0.00 | 0.00 | 0.00 | 80 | 1012.9 |
| 20260903231728 | 84 | 98 | 0.9 | 0.9 | 0.00 | 0.00 | 0.00 | 80 | 1012.9 |
| 20260903231224 | 84 | 199 | 0.0 | 0.9 | 0.00 | 0.00 | 0.00 | 79 | 1012.8 |
| 20260903230719 | 84 | 96 | 0.0 | 0.9 | 0.00 | 0.00 | 0.00 | 79 | 1012.7 |
| 20260903230214 | 84 | 176 | 0.0 | 0.0 | 0.00 | 0.00 | 0.00 | 78 | 1012.8 |
| 20260903225710 | 84 | 134 | 0.0 | 1.7 | 0.00 | 0.00 | 0.00 | 78 | 1012.6 |
| 20260903225207 | 84 | 96 | 0.0 | 0.9 | 0.00 | 0.00 | 0.00 | 79 | 1012.7 |
| 20260903224703 | 85 | 114 | 0.0 | 1.7 | 0.00 | 0.00 | 0.00 | 78 | 1012.8 |
| 20260903224158 | 85 | 296 | 0.0 | 0.0 | 0.00 | 0.00 | 0.00 | 76 | 1012.4 |
| 20260903223659 | 85 | 317 | 0.9 | 0.9 | 0.00 | 0.00 | 0.00 | 75 | 1012.5 |
| 20260903223157 | 85 | 95 | 1.7 | 1.7 | 0.00 | 0.00 | 0.00 | 75 | 1012.4 |
| 20260903222658 | 85 | 250 | 0.0 | 0.9 | 0.00 | 0.00 | 0.00 | 74 | 1012.1 |
| 20260903222156 | 85 | 189 | 0.0 | 1.7 | 0.00 | 0.00 | 0.00 | 75 | 1012.2 |
| 20260903221652 | 85 | 188 | 0.0 | 2.6 | 0.00 | 0.00 | 0.00 | 73 | 1012.3 |
| 20260903221150 | 85 | 116 | 0.0 | 0.9 | 0.00 | 0.00 | 0.00 | 73 | 1012.4 |
| 20260903220649 | 86 | 58 | 0.0 | 0.9 | 0.00 | 0.00 | 0.00 | 72 | 1012.2 |
| 20260903220144 | 85 | 266 | 0.9 | 0.9 | 0.00 | 0.00 | 0.00 | 78 | 1012.2 |
| 20260903215643 | 85 | 193 | 0.0 | 0.9 | 0.00 | 0.00 | 0.00 | 76 | 1012.2 |
| 20260903215138 | 85 | 84 | 0.0 | 1.7 | 0.00 | 0.00 | 0.00 | 76 | 1012.1 |
| 20260903214636 | 86 | 94 | 0.0 | 1.7 | 0.00 | 0.00 | 0.00 | 76 | 1012.1 |
| 20260903214132 | 85 | 163 | 0.9 | 0.9 | 0.00 | 0.00 | 0.00 | 76 | 1012.4 |
| 20260903213627 | 85 | 192 | 0.0 | 1.7 | 0.00 | 0.00 | 0.00 | 74 | 1012.4 |
| 20260903213123 | 86 | 86 | 0.0 | 2.6 | 0.00 | 0.00 | 0.00 | 74 | 1012.2 |
| 20260903212618 | 86 | 34 | 0.9 | 0.9 | 0.00 | 0.00 | 0.00 | 74 | 1012.4 |
| 20260903212114 | 86 | 189 | 0.9 | 1.7 | 0.00 | 0.00 | 0.00 | 74 | 1012.1 |
| 20260903211608 | 86 | 245 | 0.9 | 0.9 | 0.00 | 0.00 | 0.00 | 74 | 1012.2 |
| 20260903211106 | 85 | 47 | 0.0 | 2.6 | 0.00 | 0.00 | 0.00 | 74 | 1012.4 |
| 20260903210600 | 86 | 278 | 0.0 | 0.9 | 0.00 | 0.00 | 0.00 | 75 | 1012.2 |
| 20260903210056 | 86 | 273 | 0.0 | 1.7 | 0.00 | 0.00 | 0.00 | 77 | 1011.9 |
| 20260903205555 | 86 | 135 | 0.9 | 2.6 | 0.00 | 0.00 | 0.00 | 76 | 1012.1 |
| 20260903205049 | 86 | 100 | 0.0 | 3.5 | 0.00 | 0.00 | 0.00 | 76 | 1012.4 |
| 20260903204546 | 86 | 37 | 0.9 | 2.6 | 0.00 | 0.00 | 0.00 | 76 | 1012.5 |
| 20260903204041 | 87 | 103 | 0.0 | 2.6 | 0.00 | 0.00 | 0.00 | 75 | 1012.4 |
| 20260903203536 | 87 | 341 | 0.9 | 2.6 | 0.00 | 0.00 | 0.00 | 74 | 1012.4 |
| 20260903203036 | 87 | 34 | 0.0 | 2.6 | 0.00 | 0.00 | 0.00 | 75 | 1012.8 |
| 20260903202532 | 87 | 152 | 3.5 | 3.5 | 0.00 | 0.00 | 0.00 | 75 | 1012.6 |
| 20260903202027 | 87 | 344 | 0.0 | 3.5 | 0.00 | 0.00 | 0.00 | 74 | 1012.8 |
| 20260903201522 | 87 | 15 | 1.7 | 1.7 | 0.00 | 0.00 | 0.00 | 73 | 1013.0 |
| 20260903201020 | 87 | 79 | 0.9 | 1.7 | 0.00 | 0.00 | 0.00 | 74 | 1013.0 |
| 20260903200515 | 87 | 23 | 0.0 | 2.6 | 0.00 | 0.00 | 0.00 | 74 | 1013.1 |
| 20260903200011 | 88 | 20 | 1.7 | 2.6 | 0.00 | 0.00 | 0.00 | 72 | 1013.2 |
| 20260903195507 | 88 | 183 | 0.0 | 2.6 | 0.00 | 0.00 | 0.00 | 72 | 1013.4 |
| 20260903195002 | 88 | 128 | 0.9 | 2.6 | 0.00 | 0.00 | 0.00 | 72 | 1013.3 |
| 20260903194457 | 89 | 73 | 1.7 | 4.3 | 0.00 | 0.00 | 0.00 | 72 | 1013.3 |
| 20260903193953 | 89 | 319 | 0.0 | 1.7 | 0.00 | 0.00 | 0.00 | 71 | 1013.5 |
| 20260903193449 | 88 | 18 | 0.0 | 2.6 | 0.00 | 0.00 | 0.00 | 71 | 1013.4 |
| 20260903192943 | 88 | 0 | 2.6 | 2.6 | 0.00 | 0.00 | 0.00 | 70 | 1013.3 |
| 20260903192441 | 88 | 11 | 0.9 | 2.6 | 0.00 | 0.00 | 0.00 | 73 | 1013.3 |
| 20260903191935 | 87 | 74 | 0.9 | 2.6 | 0.00 | 0.00 | 0.00 | 73 | 1013.4 |
| 20260903191432 | 88 | 7 | 1.7 | 1.7 | 0.00 | 0.00 | 0.00 | 71 | 1013.2 |
| 20260903190931 | 88 | 26 | 0.9 | 1.7 | 0.00 | 0.00 | 0.00 | 70 | 1013.4 |
| 20260903190425 | 89 | 132 | 0.0 | 2.6 | 0.00 | 0.00 | 0.00 | 71 | 1013.4 |
| 20260903185919 | 89 | 73 | 0.9 | 2.6 | 0.00 | 0.00 | 0.00 | 70 | 1013.4 |
| 20260903185414 | 88 | 94 | 0.0 | 2.6 | 0.00 | 0.00 | 0.00 | 74 | 1013.5 |
| 20260903184910 | 88 | 20 | 5.2 | 5.2 | 0.00 | 0.00 | 0.00 | 73 | 1013.5 |
| 20260903184407 | 88 | 20 | 2.6 | 3.5 | 0.00 | 0.00 | 0.00 | 74 | 1013.5 |
| 20260903183906 | 87 | 79 | 0.0 | 4.3 | 0.00 | 0.00 | 0.00 | 74 | 1013.4 |
| 20260903183401 | 87 | 238 | 2.6 | 2.6 | 0.00 | 0.00 | 0.00 | 75 | 1013.5 |
| 20260903182901 | 87 | 148 | 1.7 | 1.7 | 0.00 | 0.00 | 0.00 | 77 | 1013.9 |
| 20260903182359 | 87 | 55 | 0.0 | 3.5 | 0.00 | 0.00 | 0.00 | 77 | 1013.8 |
| 20260903181854 | 86 | 278 | 0.0 | 1.7 | 0.00 | 0.00 | 0.00 | 79 | 1014.0 |
| 20260903181349 | 86 | 348 | 2.6 | 3.5 | 0.00 | 0.00 | 0.00 | 78 | 1014.0 |
| 20260903180843 | 85 | 216 | 0.0 | 1.7 | 0.00 | 0.00 | 0.00 | 81 | 1014.1 |
| 20260903180343 | 84 | 13 | 0.0 | 0.9 | 0.00 | 0.00 | 0.00 | 81 | 1014.2 |
| 20260903175843 | 84 | 79 | 0.0 | 1.7 | 0.00 | 0.00 | 0.00 | 82 | 1014.2 |
| 20260903175337 | 84 | 207 | 0.0 | 0.9 | 0.00 | 0.00 | 0.00 | 82 | 1014.4 |
| 20260903174832 | 84 | 19 | 0.0 | 1.7 | 0.00 | 0.00 | 0.00 | 81 | 1014.2 |
| 20260903174327 | 83 | 159 | 0.0 | 1.7 | 0.00 | 0.00 | 0.00 | 82 | 1014.3 |
| 20260903173826 | 83 | 113 | 0.9 | 0.9 | 0.00 | 0.00 | 0.00 | 82 | 1014.4 |
| 20260903173322 | 83 | 176 | 0.0 | 2.6 | 0.00 | 0.00 | 0.00 | 83 | 1014.4 |
| 20260903172818 | 83 | 206 | 0.9 | 1.7 | 0.00 | 0.00 | 0.00 | 83 | 1014.4 |
| 20260903172312 | 83 | 1 | 1.7 | 1.7 | 0.00 | 0.00 | 0.00 | 83 | 1014.8 |
| 20260903171808 | 83 | 248 | 0.0 | 0.9 | 0.00 | 0.00 | 0.00 | 83 | 1014.8 |